Location: Crescent
(42.8242°N, 73.7329°W)
Time: 08:20:25
(UTC+00:00)

Vanguard 2 Rocket - Pass Details

Date: 23 February 2026
Orbit: 553 x 3286 km, 32.9° (Epoch: 12 March)

Event Time Altitude Azimuth Distance (km) Brightness Sun altitude
Rises 14:19:49 0° 217° (SW) 6,694 11.4 25.0°
Reaches altitude 10° 14:24:28 10° 210° (SSW) 5,919 11.3 25.6°
Maximum altitude 14:41:25 39° 150° (SSE) 4,260 12.3 27.7°
Drops below altitude 10° 14:57:21 10° 90° (E) 5,623 11.5 29.6°
Sets 15:01:34 0° 83° (E) 6,347 11.6 30.1°
